CAPE
1106 705 829 899 968 820 1062 1159 1182 1201 1890 2893 2455 2398 3094 3499 2834 1959 1812 2305 1688 1171 1253 1431 2117 2624 2029 2064 2031 2085 2162 1792 1914
1367 1082 783 915 997 1153 1239 1302 1356 1602 2344 2519 2587 2237 2844 3389 3260 2840 2340 3278 2978 1635 2318 1707 1413 2301 2558 1778 2140 1824 3121 1894 2591
1191 1374 1089 1052 1209 1229 1374 1364 1438 1578 1877 2339 2496 2195 2346 2596 2625 2872 2794 2503 2871 2816 2376 2715 2039 2139 1555 1706 2101 2799 3159 2129 2533
1054 1369 1308 1224 1281 1247 1448 1519 1418 1702 1789 2489 2474 2706 2974 2966 2827 2546 2750 2580 2701 3265 2464 2535 2512 2836 2350 2412 2306 2855 2896 2483 2623
1090 1243 1640 1566 1519 1468 1381 1628 1743 1858 1988 1971 2165 2761 3675 3072 2851 2941 2467 2787 2791 3337 3563 2897 3424 2966 2541 2433 2437 2527 2643 2119 2076
1205 1470 1867 2043 1978 1872 1741 1703 1874 1849 1905 2079 2091 2431 2669 2757 2491 2512 2621 2754 3249 3445 3033 3313 2324 3055 3387 2667 2553 2950 2727 2505 2480
1238 1450 1917 2104 2420 2604 2474 2379 2425 2354 2175 2073 2241 2207 2522 3053 2699 3070 2285 2978 3547 3184 3536 3550 3415 2912 3065 2978 2880 2713 2460 2702 2684
1352 1731 1764 2152 2509 2938 2882 2751 2708 2619 2497 2459 2362 2329 2317 3066 3290 2502 2736 2986 3331 3395 2990 2887 3059 3565 2950 2858 2440 1803 2842 3032 2231
1294 1440 1571 1939 2500 2742 2785 2787 2728 2607 2652 2608 2498 2515 2426 2478 2979 3010 2598 3123 3390 3276 3360 3354 3576 3350 3100 2995 1764 979 880 1634 2377
1447 1388 1519 1775 1927 1900 2037 2068 2105 2252 2173 2209 2215 2298 2281 2414 2448 2378 2532 2618 2698 2872 3266 3076 3174 3185 3042 3205 3100 1374 365 450 1130
1346 1485 1516 1779 1862 1944 1829 1521 1540 1456 1614 1635 1498 1395 1221 1119 1137 1173 1326 1800 2199 2356 3068 3191 3248 2910 3131 3203 3174 1502 554 257 1817
977 759 1240 1710 1569 1652 1375 1349 930 893 1027 1084 919 941 743 659 538 444 452 498 621 1133 1944 2637 2700 2921 3006 3022 3200 1162 450 138 1766
399 654 1140 1131 1030 1039 984 861 578 652 763 709 794 510 211 183 92 6 5 10 15 24 370 1003 1367 2655 2695 2314 2964 1837 0 153 1761
519 619 781 685 620 603 502 504 446 291 559 787 253 161 126 10 9 14 14 10 14 13 19 91 731 1832 2488 2550 2124 2201 0 0 2345
448 580 663 512 494 416 2 38 26 212 448 247 84 68 28 5 6 9 9 12 9 8 10 25 388 1267 1715 2114 2249 875 1 1 27
356 270 321 161 115 39 1 5 52 279 486 256 129 95 10 11 7 8 8 9 6 6 9 89 392 822 524 36 4 15 1 1 1
284 91 66 5 9 11 12 38 269 404 326 221 139 79 12 9 8 10 5 6 4 7 3 3 1 5 4 3 4 1 6 2 0
139 58 18 11 9 18 20 62 278 340 294 383 124 117 15 5 6 10 7 4 2 4 2 2 1 1 2 1 1 1 0 1 1
142 31 13 19 29 27 21 143 294 376 385 281 113 123 11 0 5 11 4 6 3 0 0 1 0 1 0 1 0 1 1 1 1
54 110 77 90 39 50 66 151 206 287 610 437 245 210 68 5 0 6 12 10 4 1 0 0 0 0 0 0 0 1 1 0 1
CIN
-0 -0 -0 -0 -1 -0 -0 -0 -6 -6 -7 -6 -8 -3 -0 -0 -0 -0 -0 -0 -0 -1 -7 -32 -49 -0 -0 -0 -0 -0 -0 -0 -0
-1 -0 -0 -0 -0 -2 -7 -12 -1 -1 -0 -21 -17 -16 -0 -0 -0 -0 -0 -0 -0 -0 -8 -2 -39 -16 -11 -0 -0 -0 -1 -0 -0
-0 -3 -5 -0 -0 -0 -4 -20 -9 -2 -0 -12 -22 -10 -6 -1 -0 -1 -1 -0 -0 -0 -10 -7 -2 -0 -0 -0 -0 -0 -0 -0 -0
-0 -5 -6 -0 -2 -0 -1 -21 -0 -9 -11 -8 -2 -2 -0 -0 -0 -0 -0 -0 -0 -0 -0 -0 -0 -0 -0 -0 -0 -0 -0 -0 -0
-3 -3 -13 -8 -13 -10 -0 -0 -0 -0 -0 -0 -0 -0 -0 -0 -0 -0 -0 -0 -0 -0 -0 -0 -0 -0 -0 -0 -0 -0 -0 -0 -0
-14 -13 -15 -20 -23 -26 -10 -0 -0 -0 -0 -0 -0 -0 -0 -0 -0 -0 -0 -0 -0 -0 -0 -0 -0 -0 -0 -0 -0 -0 -0 -0 -0
-5 -13 -17 -12 -10 -18 -19 -9 -7 -4 -1 -0 -0 -1 -0 -0 -0 -0 -0 -0 -0 -0 -1 -0 -0 -0 -0 -0 -0 -0 -0 -0 -0
-3 -17 -18 -18 -12 -13 -14 -14 -11 -10 -2 -0 -0 -0 -0 -0 -0 -0 -0 -4 -0 -0 -0 -0 -0 -0 -0 -0 -0 -0 -0 -0 -12
-10 -8 -13 -23 -22 -18 -15 -13 -9 -10 -3 -1 -0 -0 -0 -0 -1 -0 -0 -3 -0 -0 -0 -0 -0 -0 -0 -0 -0 -1 -6 -14 -0
-0 -0 -2 -17 -36 -41 -51 -52 -42 -20 -17 -9 -5 -1 -0 -1 -5 -0 -0 -0 -0 -0 -0 -0 -0 -0 -0 -0 -0 -12 -65 -31 -0
-0 -0 -0 -2 -18 -26 -63 -76 -51 -46 -20 -18 -19 -14 -21 -27 -19 -8 -3 -0 -0 -0 -0 -0 -0 -0 -0 -0 -0 -17 -85 -115 -1
-1 -7 -0 -7 -28 -36 -73 -54 -123 -94 -39 -22 -28 -16 -41 -51 -69 -81 -66 -53 -37 -2 -0 -0 -0 -0 -0 -0 -0 -41 -126 -212 -0
-37 -28 -30 -51 -40 -53 -56 -75 -116 -81 -31 -26 -9 -52 -89 -96 -125 -0 -0 -0 -0 -27 -69 -15 -0 -0 -0 -0 -0 -10 -0 -168 -0
-47 -61 -70 -64 -47 -38 -57 -69 -60 -82 -15 -4 -41 -60 -78 -0 -0 -0 -0 -0 -0 -0 -0 -137 -22 -0 -0 -0 -0 -6 -0 -0 -5
-36 -29 -28 -34 -8 -8 -3 -31 -70 -23 -2 -19 -48 -51 -27 -0 -0 -0 -0 -0 -0 -0 -0 -1 -76 -0 -0 -0 -0 -17 -0 -0 -3
-25 -38 -7 -56 -61 -135 -7 -0 -22 -0 -0 -3 -20 -26 -0 -0 -0 -0 -0 -0 -0 -0 -0 -164 -46 -0 -7 -159 -1 -4 -0 -0 -0
-15 -98 -140 -4 -7 -0 -1 -27 -26 -1 -2 -11 -6 -31 -0 -0 -0 -0 -0 -0 -0 -0 -0 -0 -0 -0 -0 -0 -0 -0 -0 -0 -0
-52 -126 -107 -0 -0 -0 -0 -14 -13 -3 -7 -6 -4 -5 -0 -0 -0 -0 -0 -0 -0 -0 -0 -0 -0 -0 -0 -0 -0 -0 -0 -0 -0
-61 -132 -0 -0 -0 -0 -0 -12 -2 -1 -1 -7 -13 -0 -9 -0 -0 -0 -0 -0 -0 -0 -0 -0 -0 -0 -0 -0 -0 -0 -0 -0 -0
-30 -72 -85 -70 -28 -60 -44 -19 -8 -4 -2 -0 -0 -0 -6 -14 -0 -0 -0 -0 -0 -0 -0 -0 -0 -0 -0 -0 -0 -0 -0 -0 -0
Wind_Speed
11 17 17 18 19 17 14 17 18 18 19 16 17 17 15 13 13 10 10 9 8 7 6 1 5 11 8 10 8 7 6 6 7
9 13 17 18 18 18 16 15 17 17 18 17 17 18 14 13 13 14 11 10 11 9 6 5 5 5 7 10 10 9 8 10 9
7 9 13 17 16 18 16 17 16 16 16 18 16 16 15 14 15 14 12 10 10 9 7 8 7 5 9 9 10 10 8 8 9
12 11 11 13 13 13 18 15 15 15 14 10 14 14 14 14 14 15 14 13 12 11 11 10 9 8 9 9 10 10 8 8 10
7 11 10 10 11 11 12 13 13 14 12 15 15 13 11 13 13 13 15 14 14 12 12 12 11 11 10 11 11 9 9 11 11
10 9 10 10 10 10 9 10 9 9 11 11 12 12 13 13 13 13 13 13 13 12 12 12 14 12 12 12 12 11 11 10 11
10 10 10 10 10 10 8 8 8 7 8 8 10 12 10 11 13 11 13 13 12 13 11 11 13 13 12 13 13 12 12 12 11
10 10 11 10 10 9 8 7 7 5 6 7 7 9 11 13 11 10 10 9 10 10 10 12 13 12 13 12 13 12 13 13 9
11 12 11 11 11 11 10 9 7 6 6 7 6 8 10 10 7 12 13 9 10 12 13 14 14 15 15 14 13 12 13 13 12
13 11 11 11 10 9 8 8 7 6 5 4 4 4 4 5 5 4 9 12 14 15 13 14 14 15 14 14 15 13 11 14 15
11 10 10 9 8 8 7 7 6 4 5 4 2 1 2 4 5 7 8 8 9 10 12 14 14 16 17 16 13 13 15 16 14
8 8 8 7 7 8 6 6 5 4 4 4 1 3 4 6 8 9 10 11 12 13 13 13 14 13 16 16 15 14 16 14 15
9 8 8 7 8 8 7 6 6 5 4 3 3 6 6 8 10 11 12 12 13 13 14 15 13 15 16 17 16 11 15 16 12
8 8 8 7 7 6 4 6 6 4 5 7 6 6 7 9 9 11 13 14 12 12 15 15 15 15 13 14 14 13 15 17 13
7 7 9 6 6 7 5 3 5 6 6 8 4 4 9 9 10 9 9 12 12 13 14 14 15 14 12 8 9 11 14 14 15
5 3 5 4 4 9 5 5 5 6 7 4 7 9 9 10 11 11 12 10 10 10 10 10 11 8 6 3 2 2 6 11 8
5 2 5 5 6 7 7 5 7 6 8 6 9 6 9 9 10 9 12 9 8 8 8 6 4 3 5 5 6 5 2 3 4
6 5 6 6 6 7 8 8 7 5 9 7 7 5 8 9 8 10 10 11 11 8 10 8 4 6 6 6 7 7 15 11 6
6 6 5 5 5 7 8 10 8 9 10 8 7 8 8 8 8 7 10 8 9 23 23 24 23 20 12 10 16 24 23 24 26
8 7 6 7 7 7 7 7 8 11 8 8 7 7 8 7 8 10 8 7 7 9 14 24 25 24 24 22 18 21 23 23 24
Wind_Direction
187 192 193 192 187 186 186 184 185 186 176 190 194 198 198 200 207 213 218 213 233 239 205 176 150 193 204 216 241 201 222 243 238
180 185 192 179 188 170 196 197 187 189 174 191 195 201 199 202 202 221 215 222 196 236 245 240 145 253 189 220 208 226 196 228 220
144 162 178 170 184 175 175 196 188 192 188 190 198 202 202 205 208 211 222 222 222 231 213 218 267 241 221 222 226 214 223 241 238
134 144 164 166 176 185 169 189 187 198 188 194 197 201 204 210 208 211 214 220 216 216 221 233 230 225 246 230 228 221 214 263 284
116 131 145 166 167 180 179 176 191 178 208 195 203 202 203 209 220 217 211 216 221 220 223 216 217 205 221 239 237 229 223 228 252
143 133 139 148 158 167 187 184 189 206 202 211 195 222 201 215 214 221 226 225 223 229 221 233 226 215 204 222 235 224 230 232 241
146 136 144 142 146 152 163 167 179 202 202 207 207 200 214 218 219 231 230 223 231 225 219 224 240 235 222 213 223 225 227 222 233
158 153 151 147 139 140 146 154 163 183 196 194 206 208 217 215 222 213 234 245 234 237 228 221 223 234 242 228 227 227 213 232 215
185 176 159 154 145 148 148 147 155 159 167 179 207 219 224 235 222 215 220 238 234 236 237 227 221 222 222 224 238 232 210 222 225
192 180 162 160 152 152 141 146 147 154 164 161 181 210 261 310 335 281 251 254 247 238 237 234 228 232 231 226 224 237 195 198 228
164 175 169 161 151 145 139 150 124 126 144 137 150 183 330 322 307 291 285 264 253 256 245 238 234 234 230 226 221 215 192 192 217
147 176 154 154 152 146 151 134 128 136 157 136 159 76 1 342 328 308 293 277 274 274 260 245 240 238 235 232 234 207 193 187 218
144 143 137 155 145 148 163 129 150 165 151 180 81 26 358 345 337 318 303 294 281 277 275 268 261 238 230 228 228 208 200 191 221
139 134 142 157 146 147 136 158 131 193 194 75 39 11 6 5 346 324 309 301 293 279 272 262 260 257 237 231 228 223 196 206 214
142 147 133 190 168 141 143 166 159 188 99 85 77 37 33 12 359 345 325 309 302 286 261 249 253 248 243 235 234 230 197 213 227
157 174 192 181 140 98 138 173 209 139 107 116 72 51 40 33 20 11 356 333 317 307 288 240 252 238 184 162 47 149 207 205 222
124 137 128 127 138 157 151 181 193 137 113 122 86 74 63 47 33 20 22 6 345 342 338 6 54 70 82 81 51 26 22 153 176
142 156 179 182 191 176 165 172 182 148 132 127 116 105 82 67 48 45 44 40 18 5 20 23 62 65 66 84 71 64 73 74 60
129 146 154 162 167 164 164 188 172 166 133 119 144 129 87 77 77 55 64 34 32 37 40 36 47 50 73 75 103 88 81 76 73
117 139 146 153 163 162 160 175 180 168 136 157 154 112 103 103 92 83 56 55 42 42 37 49 40 53 52 51 54 60 75 74 69